Retour au catalogue

COSMOS 1275 DEB

ActifPO
NORAD 13460·DEBRIS·🇷🇺 Russia

Lancé Jun 4, 1981 depuis Plesetsk Cosmodrome

Loading…

Prochains Passages (prochaines 24 heures)

TLE

FraisSource: Space-Track

Époque: Sep 14, 2026, 22:26 UTC

1 13460U 81053FG  26257.93491071  .00000525  00000-0  47908-3 0  9990
2 13460  83.1269 243.9431 0087500 107.7225 281.9669 13.79619841235162

Suivez COSMOS 1275 DEB en temps réel avec AllMySat

Download on the App Store